TimeEDT,TemperatureF,Dew PointF,Humidity,Sea Level PressureIn,VisibilityMPH,Wind Direction,Wind SpeedMPH,Gust SpeedMPH,PrecipitationIn,Events,Conditions,WindDirDegrees,DateUTC
12:13 AM,62.6,59.0,88,29.69,10.0,SSW,4.6,-,N/A,,Clear,210,2012-10-20 04:13:00
12:34 AM,60.8,55.4,82,29.68,10.0,SSW,5.8,-,N/A,,Clear,200,2012-10-20 04:34:00
1:17 AM,60.8,53.6,77,29.68,10.0,SSW,5.8,-,N/A,,Clear,200,2012-10-20 05:17:00
1:38 AM,60.8,51.8,72,29.68,10.0,South,5.8,-,N/A,,Clear,190,2012-10-20 05:38:00
1:59 AM,60.8,51.8,72,29.68,10.0,South,5.8,-,N/A,,Clear,190,2012-10-20 05:59:00
2:21 AM,59.0,51.8,77,29.68,10.0,South,5.8,-,N/A,,Clear,190,2012-10-20 06:21:00
2:42 AM,59.0,50.0,72,29.68,10.0,SSW,4.6,-,N/A,,Clear,200,2012-10-20 06:42:00
3:03 AM,59.0,50.0,72,29.67,10.0,SSW,3.5,-,N/A,,Clear,210,2012-10-20 07:03:00
3:25 AM,59.0,50.0,72,29.69,10.0,SW,5.8,-,N/A,,Clear,220,2012-10-20 07:25:00
3:46 AM,59.0,50.0,72,29.69,10.0,SW,5.8,-,N/A,,Clear,230,2012-10-20 07:46:00
4:07 AM,59.0,50.0,72,29.70,10.0,SW,4.6,-,N/A,,Clear,230,2012-10-20 08:07:00
4:29 AM,59.0,50.0,72,29.71,10.0,WSW,5.8,-,N/A,,Clear,250,2012-10-20 08:29:00
4:50 AM,59.0,48.2,67,29.71,10.0,WSW,6.9,-,N/A,,Clear,250,2012-10-20 08:50:00
5:11 AM,57.2,48.2,72,29.72,10.0,West,5.8,-,N/A,,Clear,260,2012-10-20 09:11:00
5:33 AM,57.2,48.2,72,29.73,10.0,West,8.1,-,N/A,,Clear,270,2012-10-20 09:33:00
5:54 AM,57.2,50.0,77,29.74,10.0,West,6.9,-,N/A,,Clear,270,2012-10-20 09:54:00
6:15 AM,57.2,46.4,67,29.74,10.0,West,6.9,-,N/A,,Clear,280,2012-10-20 10:15:00
6:36 AM,55.4,46.4,72,29.74,10.0,WNW,8.1,-,N/A,,Clear,300,2012-10-20 10:36:00
7:19 AM,55.4,46.4,72,29.75,10.0,NW,4.6,-,N/A,,Clear,320,2012-10-20 11:19:00
7:40 AM,55.4,48.2,77,29.76,10.0,NW,3.5,-,N/A,,Clear,310,2012-10-20 11:40:00
8:01 AM,55.4,50.0,82,29.76,10.0,Calm,Calm,-,N/A,,Clear,0,2012-10-20 12:01:00
8:23 AM,57.2,50.0,77,29.77,10.0,Calm,Calm,-,N/A,,Clear,0,2012-10-20 12:23:00
8:44 AM,59.0,50.0,72,29.77,10.0,WNW,3.5,-,N/A,,Clear,290,2012-10-20 12:44:00
9:05 AM,59.0,50.0,72,29.77,10.0,WNW,4.6,-,N/A,,Clear,290,2012-10-20 13:05:00
9:27 AM,59.0,50.0,72,29.78,10.0,WNW,3.5,-,N/A,,Clear,300,2012-10-20 13:27:00
10:09 AM,60.8,46.4,59,29.79,10.0,NW,5.8,-,N/A,,Clear,310,2012-10-20 14:09:00
10:52 AM,60.8,42.8,52,29.80,10.0,NW,6.9,-,N/A,,Clear,320,2012-10-20 14:52:00
11:13 AM,60.8,44.6,55,29.80,10.0,NW,6.9,-,N/A,,Clear,320,2012-10-20 15:13:00
11:34 AM,62.6,44.6,52,29.80,10.0,NW,8.1,-,N/A,,Clear,320,2012-10-20 15:34:00
11:55 AM,62.6,46.4,55,29.80,10.0,NW,5.8,-,N/A,,Clear,320,2012-10-20 15:55:00
12:16 PM,62.6,44.6,52,29.79,10.0,NNW,9.2,-,N/A,,Clear,340,2012-10-20 16:16:00
12:38 PM,62.6,44.6,52,29.78,10.0,NNW,6.9,-,N/A,,Clear,330,2012-10-20 16:38:00
12:59 PM,62.6,44.6,52,29.78,10.0,NNW,5.8,-,N/A,,Clear,340,2012-10-20 16:59:00
1:20 PM,62.6,44.6,52,29.77,10.0,NNW,3.5,-,N/A,,Clear,330,2012-10-20 17:20:00
1:41 PM,62.6,44.6,52,29.77,10.0,NNW,5.8,-,N/A,,Clear,340,2012-10-20 17:41:00
2:03 PM,62.6,42.8,48,29.77,10.0,Calm,Calm,-,N/A,,Clear,0,2012-10-20 18:03:00
2:24 PM,64.4,42.8,45,29.77,10.0,Calm,Calm,-,N/A,,Clear,0,2012-10-20 18:24:00
2:45 PM,64.4,42.8,45,29.77,10.0,NNW,3.5,-,N/A,,Clear,340,2012-10-20 18:45:00
3:07 PM,64.4,42.8,45,29.77,10.0,Calm,Calm,-,N/A,,Scattered Clouds,0,2012-10-20 19:07:00
3:28 PM,62.6,44.6,52,29.77,10.0,East,4.6,-,N/A,,Scattered Clouds,80,2012-10-20 19:28:00
3:49 PM,62.6,44.6,52,29.77,10.0,ENE,4.6,-,N/A,,Scattered Clouds,60,2012-10-20 19:49:00
4:10 PM,62.6,42.8,48,29.78,10.0,East,3.5,-,N/A,,Mostly Cloudy,80,2012-10-20 20:10:00
4:32 PM,62.6,44.6,52,29.79,10.0,Calm,Calm,-,N/A,,Mostly Cloudy,0,2012-10-20 20:32:00
4:53 PM,62.6,44.6,52,29.79,10.0,Calm,Calm,-,N/A,,Scattered Clouds,0,2012-10-20 20:53:00
5:14 PM,62.6,44.6,52,29.80,10.0,Calm,Calm,-,N/A,,Mostly Cloudy,0,2012-10-20 21:14:00
5:35 PM,62.6,44.6,52,29.81,10.0,Calm,Calm,-,N/A,,Overcast,0,2012-10-20 21:35:00
5:57 PM,60.8,48.2,63,29.82,10.0,Calm,Calm,-,N/A,,Mostly Cloudy,0,2012-10-20 21:57:00
6:18 PM,60.8,44.6,55,29.82,10.0,Calm,Calm,-,N/A,,Mostly Cloudy,0,2012-10-20 22:18:00
6:39 PM,60.8,41.0,48,29.83,10.0,NW,5.8,-,N/A,,Scattered Clouds,310,2012-10-20 22:39:00
7:00 PM,60.8,42.8,52,29.84,10.0,NW,8.1,-,N/A,,Scattered Clouds,310,2012-10-20 23:00:00
7:21 PM,60.8,41.0,48,29.85,10.0,NW,4.6,-,N/A,,Clear,320,2012-10-20 23:21:00
7:43 PM,60.8,41.0,48,29.85,10.0,NW,3.5,-,N/A,,Mostly Cloudy,310,2012-10-20 23:43:00
8:04 PM,60.8,39.2,45,29.86,10.0,NW,8.1,-,N/A,,Mostly Cloudy,310,2012-10-21 00:04:00
8:25 PM,60.8,41.0,48,29.87,10.0,NW,4.6,-,N/A,,Mostly Cloudy,310,2012-10-21 00:25:00
8:47 PM,60.8,39.2,45,29.87,10.0,WNW,6.9,-,N/A,,Mostly Cloudy,300,2012-10-21 00:47:00
9:50 PM,59.0,39.2,48,29.89,10.0,NW,9.2,-,N/A,,Clear,310,2012-10-21 01:50:00
10:12 PM,59.0,39.2,48,29.90,10.0,WNW,6.9,-,N/A,,Clear,300,2012-10-21 02:12:00
10:33 PM,57.2,39.2,51,29.91,10.0,WNW,8.1,-,N/A,,Scattered Clouds,300,2012-10-21 02:33:00
10:54 PM,57.2,39.2,51,29.92,10.0,WNW,8.1,-,N/A,,Clear,300,2012-10-21 02:54:00
11:16 PM,55.4,37.4,51,29.92,10.0,WNW,10.4,16.1,N/A,,Clear,300,2012-10-21 03:16:00
11:37 PM,55.4,37.4,51,29.92,10.0,WNW,8.1,-,N/A,,Clear,300,2012-10-21 03:37:00